When you browse on this site, cookies collect data to enhance your experience and personalize the content and advertising you see.
Visit our Privacy Policy to learn more. By continuing to use the site, you agree to this use of cookies and data.
  • In Hungary
  • List of Countries
  • For 7 days
  • Water Temperature
  • Satellite Maps
  • Weather Map
  • News
  • Weather Widgets
  • user-avatar
    Login

    Hourly Weather Ayacucho

    Today, 25 June, Tuesday

    Time Temperature Precipitation Wind Pressure Humidity
    00:00 +8°C° 0 mm 0 mps 539 mmHg 68%
    01:00 +7°C° 0 mm 0 mps 538 mmHg 64%
    02:00 +8°C° 0 mm 1 mps 538 mmHg 64%
    03:00 +8°C° 0 mm 1 mps 538 mmHg 63%
    04:00 +7°C° 0 mm 1 mps 537 mmHg 63%
    05:00 +8°C° 0 mm 1 mps 538 mmHg 60%
    06:00 +9°C° 0 mm 1 mps 539 mmHg 57%
    07:00 +11°C° 0 mm 1 mps 540 mmHg 57%
    08:00 +13°C° 0 mm 1 mps 541 mmHg 48%
    09:00 +15°C° 0 mm 1 mps 542 mmHg 39%
    10:00 +16°C° 0 mm 0 mps 543 mmHg 30%
    11:00 +20°C° 0 mm 1 mps 543 mmHg 26%
    12:00 +21°C° 0 mm 1 mps 543 mmHg 23%
    13:00 +22°C° 0 mm 1 mps 543 mmHg 19%
    14:00 +22°C° 0 mm 1 mps 543 mmHg 20%
    15:00 +22°C° 0 mm 1 mps 543 mmHg 21%
    16:00 +22°C° 0 mm 1 mps 542 mmHg 22%
    17:00 +18°C° 0 mm 2 mps 541 mmHg 34%
    18:00 +15°C° 0 mm 2 mps 540 mmHg 46%
    19:00 +12°C° 0 mm 2 mps 539 mmHg 58%
    20:00 +12°C° 0 mm 1 mps 539 mmHg 60%
    21:00 +11°C° 0 mm 1 mps 539 mmHg 63%
    22:00 +10°C° 0 mm 1 mps 539 mmHg 65%
    23:00 +10°C° 0 mm 1 mps 539 mmHg 69%

    Tomorrow, 26 June, Wednesday

    Time Temperature Precipitation Wind Pressure Humidity
    00:00 +9°C° 0 mm 1 mps 538 mmHg 73%
    01:00 +9°C° 0 mm 1 mps 538 mmHg 76%
    02:00 +7°C° 0 mm 0 mps 538 mmHg 80%
    03:00 +7°C° 0 mm 0 mps 537 mmHg 83%
    04:00 +6°C° 0 mm 0 mps 537 mmHg 86%
    05:00 +7°C° 0 mm 0 mps 538 mmHg 85%
    06:00 +8°C° 0 mm 0 mps 539 mmHg 84%
    07:00 +9°C° 0 mm 0 mps 539 mmHg 83%
    08:00 +11°C° 0 mm 1 mps 540 mmHg 75%
    09:00 +13°C° 0 mm 1 mps 541 mmHg 67%
    10:00 +15°C° 0 mm 1 mps 542 mmHg 59%
    11:00 +16°C° 0 mm 2 mps 542 mmHg 56%
    12:00 +17°C° 0 mm 2 mps 542 mmHg 52%
    13:00 +18°C° 0 mm 2 mps 542 mmHg 49%
    14:00 +18°C° 0 mm 2 mps 541 mmHg 48%
    15:00 +18°C° 0 mm 2 mps 541 mmHg 48%
    16:00 +18°C° 0 mm 2 mps 541 mmHg 47%
    17:00 +16°C° 0 mm 1 mps 540 mmHg 56%
    18:00 +14°C° 0 mm 1 mps 540 mmHg 66%
    19:00 +12°C° 0 mm 1 mps 539 mmHg 75%
    20:00 +12°C° 0 mm 1 mps 539 mmHg 78%
    21:00 +11°C° 0 mm 1 mps 539 mmHg 81%
    22:00 +10°C° 0 mm 1 mps 539 mmHg 84%
    23:00 +9°C° 0 mm 0 mps 539 mmHg 85%

    Day after tomorrow, 27 June, Thursday

    Time Temperature Precipitation Wind Pressure Humidity
    00:00 +9°C° 0 mm 0 mps 539 mmHg 87%
    01:00 +8°C° 0 mm 0 mps 538 mmHg 89%
    02:00 +8°C° 0 mm 0 mps 538 mmHg 90%
    03:00 +8°C° 0 mm 0 mps 538 mmHg 91%
    04:00 +8°C° 0 mm 0 mps 538 mmHg 92%
    05:00 +8°C° 0 mm 0 mps 538 mmHg 91%
    06:00 +9°C° 0 mm 0 mps 539 mmHg 90%
    07:00 +9°C° 0 mm 0 mps 540 mmHg 89%
    08:00 +11°C° 0 mm 0 mps 540 mmHg 81%
    09:00 +14°C° 0 mm 1 mps 541 mmHg 72%
    10:00 +16°C° 0 mm 1 mps 542 mmHg 64%
    11:00 +18°C° 0.1 mm 1 mps 542 mmHg 59%
    12:00 +18°C° 0.1 mm 2 mps 542 mmHg 54%
    13:00 +19°C° 0.1 mm 2 mps 542 mmHg 50%
    14:00 +19°C° 0.1 mm 2 mps 542 mmHg 51%
    15:00 +19°C° 0.1 mm 2 mps 541 mmHg 52%
    16:00 +19°C° 0.1 mm 1 mps 541 mmHg 52%
    17:00 +18°C° 0.3 mm 1 mps 541 mmHg 61%
    18:00 +15°C° 0.3 mm 1 mps 540 mmHg 69%
    19:00 +14°C° 0.3 mm 1 mps 540 mmHg 78%
    20:00 +14°C° 0.2 mm 1 mps 541 mmHg 78%
    21:00 +14°C° 0.2 mm 1 mps 541 mmHg 78%
    22:00 +13°C° 0.2 mm 1 mps 542 mmHg 79%
    23:00 +13°C° 0.4 mm 1 mps 541 mmHg 79%

    28 June, Friday

    Time Temperature Precipitation Wind Pressure Humidity
    00:00 +13°C° 0.4 mm 1 mps 541 mmHg 80%
    01:00 +12°C° 0.4 mm 1 mps 541 mmHg 81%
    02:00 +12°C° 0 mm 1 mps 540 mmHg 84%
    03:00 +10°C° 0 mm 0 mps 539 mmHg 86%
    04:00 +9°C° 0 mm 0 mps 539 mmHg 89%
    05:00 +10°C° 0 mm 0 mps 539 mmHg 88%
    06:00 +10°C° 0 mm 0 mps 540 mmHg 87%
    07:00 +11°C° 0 mm 0 mps 540 mmHg 86%
    08:00 +12°C° 0 mm 0 mps 541 mmHg 79%
    09:00 +15°C° 0 mm 1 mps 542 mmHg 72%
    10:00 +16°C° 0 mm 1 mps 543 mmHg 65%
    11:00 +17°C° 0.1 mm 2 mps 543 mmHg 61%
    12:00 +18°C° 0.1 mm 2 mps 543 mmHg 57%
    13:00 +19°C° 0.1 mm 2 mps 543 mmHg 54%
    14:00 +18°C° 0.2 mm 2 mps 542 mmHg 57%
    15:00 +17°C° 0.2 mm 2 mps 542 mmHg 61%
    16:00 +17°C° 0.2 mm 2 mps 541 mmHg 65%
    17:00 +16°C° 1.1 mm 2 mps 541 mmHg 73%
    18:00 +14°C° 1.1 mm 2 mps 541 mmHg 81%
    19:00 +13°C° 1.1 mm 1 mps 541 mmHg 89%
    20:00 +13°C° 0.7 mm 1 mps 541 mmHg 89%
    21:00 +13°C° 0.7 mm 1 mps 541 mmHg 88%
    22:00 +11°C° 0.7 mm 0 mps 542 mmHg 88%
    23:00 +11°C° 0.1 mm 0 mps 541 mmHg 88%

    29 June, Saturday

    Time Temperature Precipitation Wind Pressure Humidity
    00:00 +11°C° 0.1 mm 0 mps 541 mmHg 88%
    01:00 +11°C° 0.1 mm 0 mps 541 mmHg 88%
    02:00 +11°C° 0 mm 0 mps 540 mmHg 89%
    03:00 +10°C° 0 mm 0 mps 540 mmHg 91%
    04:00 +10°C° 0 mm 0 mps 539 mmHg 92%
    05:00 +10°C° 0 mm 0 mps 540 mmHg 91%
    06:00 +10°C° 0 mm 0 mps 540 mmHg 89%
    07:00 +11°C° 0 mm 0 mps 541 mmHg 88%
    08:00 +13°C° 0 mm 1 mps 542 mmHg 81%
    09:00 +15°C° 0 mm 1 mps 542 mmHg 73%
    10:00 +16°C° 0 mm 1 mps 543 mmHg 66%
    11:00 +17°C° 0.1 mm 2 mps 543 mmHg 63%
    12:00 +18°C° 0.1 mm 2 mps 543 mmHg 59%
    13:00 +18°C° 0.1 mm 2 mps 543 mmHg 56%
    14:00 +18°C° 0.2 mm 2 mps 542 mmHg 58%
    15:00 +18°C° 0.2 mm 3 mps 542 mmHg 61%
    16:00 +17°C° 0.2 mm 3 mps 542 mmHg 63%
    17:00 +16°C° 0.2 mm 2 mps 542 mmHg 69%
    18:00 +15°C° 0.2 mm 2 mps 541 mmHg 75%
    19:00 +14°C° 0.2 mm 2 mps 541 mmHg 81%
    20:00 +13°C° 0.5 mm 1 mps 541 mmHg 82%
    21:00 +13°C° 0.5 mm 1 mps 541 mmHg 84%
    22:00 +13°C° 0.5 mm 1 mps 541 mmHg 86%
    23:00 +12°C° 0.2 mm 1 mps 541 mmHg 86%

    30 June, Sunday

    Time Temperature Precipitation Wind Pressure Humidity
    00:00 +11°C° 0.2 mm 0 mps 540 mmHg 87%
    01:00 +10°C° 0.2 mm 0 mps 540 mmHg 88%
    02:00 +10°C° 0 mm 0 mps 540 mmHg 89%
    03:00 +9°C° 0 mm 0 mps 539 mmHg 89%
    04:00 +9°C° 0 mm 0 mps 539 mmHg 90%
    05:00 +9°C° 0 mm 0 mps 539 mmHg 90%
    06:00 +10°C° 0 mm 0 mps 540 mmHg 89%
    07:00 +10°C° 0 mm 0 mps 540 mmHg 88%
    08:00 +12°C° 0 mm 0 mps 541 mmHg 81%
    09:00 +14°C° 0 mm 1 mps 542 mmHg 73%
    10:00 +16°C° 0 mm 1 mps 543 mmHg 66%
    11:00 +18°C° 0.1 mm 1 mps 543 mmHg 63%
    12:00 +18°C° 0.1 mm 2 mps 543 mmHg 59%
    13:00 +19°C° 0.1 mm 2 mps 542 mmHg 55%
    14:00 +19°C° 0.4 mm 2 mps 542 mmHg 56%
    15:00 +18°C° 0.4 mm 2 mps 542 mmHg 57%
    16:00 +18°C° 0.4 mm 2 mps 541 mmHg 58%
    17:00 +17°C° 0.2 mm 2 mps 541 mmHg 65%
    18:00 +15°C° 0.2 mm 2 mps 541 mmHg 71%
    19:00 +14°C° 0.2 mm 1 mps 541 mmHg 78%
    20:00 +13°C° 0 mm 1 mps 541 mmHg 80%
    21:00 +13°C° 0 mm 1 mps 540 mmHg 82%
    22:00 +12°C° 0 mm 1 mps 540 mmHg 84%
    23:00 +12°C° 0 mm 1 mps 540 mmHg 85%
    Show more